User: anonymous   Login
Location: Unspecified
(0.0000°N, 0.0000°E)
Time: 01:53:32
(UTC+00:00)
Language:

TMSAT-1 - Orbit

View from above orbital plane
View from above orbital plane
View from above satellite
View from above satellite

Ground track
Ground track

The orbit data is extracted from the following two-line orbital elements,

1 25396U 98043C   23088.47912995  .00000502  00000-0  23478-3 0  9990
2 25396  98.8365  44.4051 0002162 343.7270  16.3839 14.24812127284513
Epoch (UTC): 29 March 2023 11:29:56
Eccentricity: 0.0002162
inclination: 98.8365°
perigee height: 807 km
apogee height: 810 km
right ascension of ascending node: 44.4051°
argument of perigee: 343.7270°
revolutions per day: 14.24812127
mean anomaly at epoch: 16.3839°
orbit number at epoch: 28451

The dashed part of the orbit path shows where the satellite is in the earth's shadow,  

DLR